This is the latest recevied weather packets stored in our database for station/object EA1JAV-11. If no packets are shown the sender has not sent any weather packets the latest 10 day(s).
| Time | Temp. | Humidity | Pressure | Rain* | Wind** | Luminosity | Snow |
|---|---|---|---|---|---|---|---|
| 1778218715 | 16.11° C | 48% | 983.8 hPa | - | - | - | - |
| 1778216915 | 16.11° C | 48% | 983.6 hPa | - | - | - | - |
| 1778215115 | 16.11° C | 48% | 983.9 hPa | - | - | - | - |
| 1778213314 | 16.11° C | 47% | 984 hPa | - | - | - | - |
| 1778211514 | 16.11° C | 47% | 984 hPa | - | - | - | - |
| 1778209714 | 16.11° C | 47% | 983.9 hPa | - | - | - | - |
| 1778207914 | 16.11° C | 47% | 984 hPa | - | - | - | - |
| 1778206114 | 16.11° C | 47% | 984.2 hPa | - | - | - | - |
| 1778204314 | 16.11° C | 47% | 984.6 hPa | - | - | - | - |
| 1778202514 | 16.67° C | 47% | 984.9 hPa | - | - | - | - |
| 1778200714 | 16.67° C | 47% | 985.3 hPa | - | - | - | - |
| 1778198914 | 16.67° C | 47% | 985.4 hPa | - | - | - | - |
| 1778197114 | 17.22° C | 48% | 985.6 hPa | - | - | - | - |
| 1778195314 | 17.22° C | 47% | 985.6 hPa | - | - | - | - |
| 1778193514 | 17.78° C | 47% | 985.8 hPa | - | - | - | - |
| 1778191714 | 18.33° C | 47% | 986 hPa | - | - | - | - |
| 1778189914 | 18.33° C | 47% | 986.1 hPa | - | - | - | - |
| 1778188114 | 18.89° C | 47% | 986 hPa | - | - | - | - |
| 1778186313 | 18.89° C | 47% | 985.5 hPa | - | - | - | - |
| 1778184513 | 19.44° C | 46% | 985.2 hPa | - | - | - | - |
| 1778182713 | 19.44° C | 45% | 985.1 hPa | - | - | - | - |
| 1778180913 | 20° C | 44% | 984.7 hPa | - | - | - | - |
| 1778179113 | 20.56° C | 43% | 984.5 hPa | - | - | - | - |
| 1778177313 | 21.67° C | 42% | 984.4 hPa | - | - | - | - |
| 1778175513 | 22.22° C | 42% | 984.6 hPa | - | - | - | - |
* Rain since midnight (hover to see other rain measurements)
** Current wind speed in m/s (hover to see current wind gust speed)